Wind_Speed
47 47 46 44 42 40 39 39 39 38 37 37 36 36 35 34 33 33 32 32 32 31 30 28 26 22 19 20 16 13 13 12 10 7 5 4 5 5 4 2 12 13 17 21 18 15 20
46 48 49 46 44 45 45 44 44 44 43 42 42 41 41 40 39 38 37 35 34 33 34 32 29 25 22 22 20 17 15 13 14 10 8 6 6 6 6 3 7 11 14 17 16 19 16
51 49 47 47 49 50 50 51 51 50 49 48 47 46 46 46 45 44 42 41 40 38 38 37 33 29 24 26 23 20 17 14 14 14 12 10 5 4 8 9 5 3 9 14 22 21 23
47 48 50 51 53 53 53 54 58 59 59 59 57 56 55 54 52 51 49 49 48 45 43 42 39 36 32 32 26 24 22 17 19 16 15 12 11 5 6 12 7 4 6 9 12 23 29
39 43 46 48 49 50 50 51 52 55 58 57 57 59 60 59 59 58 58 57 57 55 54 51 48 43 42 38 30 29 26 24 23 21 20 15 13 11 6 11 11 10 5 6 9 6 17
32 34 36 38 39 40 41 42 42 43 48 52 50 50 50 51 51 52 53 55 59 61 61 62 60 55 51 47 38 33 31 29 27 25 21 19 18 15 11 12 15 16 11 13 12 13 16
27 28 29 30 31 32 33 35 36 37 39 40 41 42 43 43 44 45 45 48 51 55 57 58 62 62 57 55 47 40 37 36 34 33 26 23 20 19 15 15 14 14 13 15 12 15 11
25 27 28 28 28 29 30 31 32 32 33 33 32 34 35 34 34 34 35 37 42 46 49 53 57 61 62 61 57 50 45 41 41 36 35 26 22 23 19 16 15 12 11 14 9 14 19
26 27 28 28 29 30 30 31 29 29 30 30 30 32 30 30 31 31 33 34 35 39 44 50 53 56 62 63 63 56 53 49 46 42 41 30 28 25 22 18 18 16 14 14 14 12 16
27 27 27 28 29 30 30 29 30 30 32 33 33 31 31 30 29 29 30 29 30 34 35 39 47 54 58 63 65 60 56 55 49 48 46 34 33 27 24 23 23 22 19 18 17 16 15
27 28 29 29 29 28 30 31 31 32 33 34 33 33 35 35 35 33 32 30 27 28 26 27 28 41 55 60 64 61 62 55 52 50 48 43 36 28 26 29 29 27 23 23 18 17 12
24 24 24 25 26 28 29 30 31 32 32 33 33 35 38 39 38 37 35 32 28 23 22 21 22 30 42 49 54 59 61 60 59 51 49 49 42 34 35 33 31 28 28 26 19 19 16
20 20 21 22 23 24 25 25 26 28 29 31 32 35 37 38 39 38 36 33 31 26 23 20 24 29 37 41 45 50 56 58 60 56 53 54 46 42 40 37 33 30 29 25 19 20 13
16 17 19 20 20 21 23 25 26 26 26 27 28 29 30 31 31 32 33 32 30 30 26 22 19 23 29 32 38 43 49 54 57 59 56 54 48 47 45 43 37 33 29 26 21 19 9
9 6 9 9 12 15 16 19 21 24 26 28 29 29 29 29 28 26 26 28 30 30 30 26 22 21 19 27 34 39 44 51 54 55 56 54 52 52 51 44 41 36 30 28 23 19 10
10 10 11 12 9 7 9 12 15 18 21 23 25 27 29 29 30 30 28 26 31 32 32 30 27 25 22 23 25 35 41 48 52 55 54 52 50 51 51 45 44 39 34 31 25 22 15
13 14 16 12 11 12 14 13 12 9 7 10 16 21 25 27 28 27 28 30 31 32 34 33 32 30 29 27 28 28 40 42 46 51 52 52 50 50 49 49 47 41 36 33 28 25 18
19 19 20 21 19 18 19 17 16 15 17 16 15 14 14 17 22 25 28 27 30 31 32 33 34 35 31 31 31 29 28 39 44 47 51 56 54 49 54 53 47 40 37 35 30 28 24
27 26 26 28 28 26 27 26 24 24 22 24 21 20 22 20 21 17 19 24 25 27 28 31 33 36 36 34 35 34 33 31 43 46 49 55 55 54 52 48 45 42 40 39 34 30 27
34 34 33 31 32 33 34 32 29 28 27 26 25 28 28 27 26 23 24 20 18 26 32 32 31 33 37 37 37 38 37 35 36 45 49 53 55 56 55 57 57 51 46 41 35 33 30
40 39 38 36 36 38 37 39 37 34 33 34 33 32 33 32 32 31 27 27 23 26 25 30 38 37 37 40 42 41 42 40 38 41 47 51 54 56 60 61 58 53 48 42 39 33 34
41 41 42 43 43 44 45 46 45 44 43 44 42 41 39 37 39 38 36 36 34 30 28 28 28 37 43 43 45 47 47 45 45 41 44 49 51 57 61 65 64 58 51 46 41 34 35
42 44 45 45 47 49 51 52 52 53 53 52 50 48 47 48 47 44 42 41 40 38 37 37 35 34 38 48 49 49 51 52 50 48 44 46 50 54 61 65 69 62 54 51 47 41 34
44 46 50 52 55 57 58 58 59 59 60 60 60 58 57 56 53 49 48 48 49 48 45 46 44 42 41 45 50 55 52 55 55 53 52 47 50 52 57 67 65 58 59 57 53 50 42
52 53 56 58 61 62 64 65 65 65 67 67 67 66 65 62 59 58 57 55 55 54 54 52 54 52 51 49 48 52 59 56 58 60 55 54 50 52 55 59 65 62 62 61 55 53 47
59 60 62 64 67 69 70 71 71 72 73 74 75 75 73 71 69 68 65 63 62 62 63 61 59 59 58 58 57 55 54 61 62 64 64 61 58 52 54 55 61 64 65 67 65 57 53
66 69 73 76 79 81 82 80 81 81 83 84 84 83 81 79 78 75 74 71 70 69 68 68 67 68 65 65 65 65 64 63 64 66 71 69 65 56 52 58 56 67 70 67 60 64 64
74 75 77 82 85 89 91 92 93 94 90 88 89 88 88 87 85 81 79 77 76 75 75 75 76 75 77 78 76 74 74 74 70 72 74 75 71 65 61 55 61 65 73 73 68 76 72
80 83 89 97 98 97 97 95 94 94 96 94 95 96 96 94 92 88 85 83 82 81 82 82 81 85 87 86 83 81 79 79 81 78 83 83 76 70 63 54 63 67 70 70 72 76 71
Wind_Direction
245 247 246 248 249 248 249 252 251 251 252 251 251 252 253 252 253 255 256 255 256 260 261 261 259 258 250 254 254 237 230 231 231 202 167 217 258 251 201 6 15 80 36 29 55 37 42
247 250 250 250 250 249 251 250 251 251 253 255 256 256 256 254 254 254 254 252 252 255 256 256 255 250 250 246 241 243 242 235 237 231 208 220 248 288 202 262 346 6 26 26 57 52 44
253 254 252 251 251 250 249 248 250 251 252 253 255 256 257 258 259 258 257 255 253 252 254 254 251 247 243 241 241 243 241 237 243 237 225 212 198 244 267 267 300 317 22 33 72 54 49
254 254 255 256 257 259 256 252 251 253 255 257 257 257 257 257 258 257 259 259 259 257 256 252 250 246 242 245 240 240 244 237 243 244 237 227 210 228 255 252 256 31 7 55 102 65 48
254 255 256 257 255 255 255 256 255 254 255 258 257 258 259 259 258 259 258 258 257 256 257 257 254 247 244 243 239 239 241 242 244 243 241 241 236 232 244 247 268 283 219 306 328 328 23
258 257 257 256 255 254 254 253 253 254 253 254 256 257 258 260 259 260 259 259 258 257 255 254 254 252 246 243 238 236 239 244 245 244 243 244 248 240 238 250 279 272 241 291 302 317 313
259 258 259 260 258 258 257 256 256 255 255 254 255 256 256 257 259 261 262 261 260 257 255 251 249 248 246 245 240 235 237 242 245 248 241 246 247 245 241 248 271 278 273 278 293 310 301
265 264 261 259 255 256 256 258 256 255 253 252 251 253 255 256 256 258 259 263 260 260 259 254 249 246 243 243 242 236 238 238 243 248 250 241 244 245 241 243 261 267 276 289 296 309 298
269 267 265 263 262 261 261 260 256 256 251 249 254 259 251 254 258 258 260 265 267 267 263 255 249 243 240 239 240 238 238 239 242 244 248 238 245 244 239 244 250 251 258 278 279 280 268
270 269 267 265 264 264 263 261 257 254 254 255 260 254 248 251 255 259 264 270 274 275 273 261 248 242 238 235 236 236 237 240 242 242 246 239 244 242 242 242 246 245 252 263 287 282 294
276 274 273 268 265 261 260 259 258 257 258 260 259 253 250 251 257 263 267 270 277 280 286 272 256 236 234 234 234 234 235 238 241 239 242 239 243 241 246 243 240 242 250 259 280 286 300
277 276 276 275 273 270 266 262 260 259 258 258 258 256 253 256 260 263 266 267 268 273 276 266 248 235 235 237 237 235 235 236 239 237 239 243 245 239 243 244 239 239 244 254 274 276 284
283 280 277 273 271 271 270 268 266 264 261 259 257 256 257 259 260 261 260 258 259 262 265 265 252 239 235 232 231 233 234 234 235 234 235 237 234 231 237 240 235 236 241 249 261 282 282
290 284 282 280 276 274 271 269 267 265 264 260 259 259 259 259 259 259 256 252 253 255 258 260 259 250 244 241 236 231 231 233 235 234 232 234 235 234 234 235 233 231 238 245 254 273 277
355 24 7 323 292 279 277 276 273 268 265 262 261 260 261 260 259 258 257 253 252 251 250 250 250 246 244 239 240 236 232 231 232 233 231 231 233 231 230 230 230 232 235 240 244 254 251
347 346 344 350 9 0 350 327 294 274 270 266 263 260 259 258 256 253 252 251 248 248 248 247 245 244 242 235 236 235 235 233 232 230 227 227 229 229 229 227 224 227 230 233 237 238 248
305 310 315 318 312 311 312 316 316 296 275 290 277 267 262 259 256 251 245 243 247 249 249 250 249 245 240 241 238 241 235 236 234 232 228 224 224 223 225 223 219 220 227 230 235 241 243
287 289 290 297 301 296 297 301 296 287 279 286 285 276 286 272 259 252 242 242 248 250 250 249 246 245 241 240 242 239 245 234 233 231 230 222 217 214 219 218 216 218 226 232 235 236 236
279 283 284 285 288 291 294 295 294 290 283 283 283 280 277 272 265 268 248 243 241 246 246 249 250 250 243 237 238 241 237 237 233 232 230 226 218 212 213 213 216 223 224 229 230 235 234
273 275 277 277 279 283 287 288 285 286 284 282 285 283 283 278 269 266 260 252 237 242 244 239 242 246 249 242 240 237 239 236 232 233 231 226 220 212 206 209 207 214 215 221 225 226 231
273 276 276 273 275 275 278 280 280 278 280 281 281 278 278 279 276 271 267 257 248 253 252 251 241 240 242 245 241 239 237 236 236 229 232 231 221 213 210 209 209 211 214 215 220 222 228
274 274 275 276 276 279 279 280 279 277 278 280 278 276 276 275 277 273 269 264 263 255 250 253 257 248 239 239 242 241 238 234 235 234 229 230 228 215 213 211 208 208 209 214 217 215 222
280 276 276 277 277 278 279 279 278 277 278 279 276 273 273 274 275 270 269 265 265 266 262 265 258 260 248 241 238 240 242 238 232 233 231 229 228 225 214 212 210 207 207 210 214 209 210
284 280 279 279 280 280 279 277 276 275 275 275 274 272 273 272 271 268 265 264 267 268 267 267 265 258 252 248 242 238 241 243 237 232 233 230 227 226 222 214 207 209 211 211 209 207 205
287 284 282 281 280 278 276 274 272 271 271 271 271 270 270 268 266 266 266 265 265 265 266 266 268 265 257 253 246 242 236 238 241 237 229 232 231 223 224 218 206 206 211 213 210 206 198
290 287 285 283 283 281 278 275 273 271 269 268 267 267 265 265 264 263 262 262 262 262 262 264 260 264 258 255 252 248 244 236 234 238 233 227 227 229 219 217 211 207 211 212 211 206 196
291 291 291 289 286 283 279 277 276 272 269 268 267 266 264 262 263 261 261 261 259 261 259 260 259 262 260 254 253 250 244 242 237 231 237 230 225 221 222 213 211 214 209 212 209 209 200
298 295 294 293 291 287 282 278 274 271 267 264 263 263 262 262 261 261 260 257 259 258 258 258 258 258 257 256 250 247 246 242 241 234 228 233 227 220 217 209 208 213 209 207 200 216 210
300 297 298 296 292 286 281 277 274 270 266 263 261 258 256 257 257 257 258 257 257 258 259 257 260 255 255 253 250 243 238 237 239 236 229 226 227 222 216 210 210 212 207 206 206 215 213
Height
10928 10929 10931 10933 10935 10937 10938 10939 10940 10942 10944 10946 10948 10949 10951 10953 10955 10958 10960 10962 10963 10964 10965 10967 10969 10972 10975 10974 10977 10979 10981 10982 10983 10983 10983 10984 10983 10985 10984 10983 10983 10982 10976 10973 10969 10968 10966
10921 10923 10924 10926 10928 10929 10931 10932 10933 10934 10936 10938 10940 10941 10943 10945 10948 10950 10953 10955 10957 10958 10959 10961 10964 10967 10971 10971 10972 10975 10977 10980 10981 10981 10982 10983 10982 10981 10983 10983 10983 10982 10979 10974 10973 10972 10968
10912 10914 10916 10917 10919 10921 10923 10924 10925 10927 10928 10929 10931 10933 10934 10937 10939 10942 10945 10947 10949 10951 10953 10955 10958 10962 10966 10966 10967 10970 10973 10976 10978 10979 10980 10981 10981 10981 10981 10981 10982 10981 10979 10976 10975 10978 10971
10903 10904 10906 10907 10909 10910 10912 10913 10916 10917 10918 10920 10921 10923 10925 10927 10929 10933 10936 10936 10939 10943 10944 10947 10950 10955 10959 10959 10964 10965 10968 10972 10972 10974 10976 10978 10980 10980 10979 10978 10981 10980 10979 10977 10976 10976 10974
10894 10895 10896 10897 10899 10899 10900 10901 10903 10905 10906 10908 10909 10911 10913 10915 10918 10921 10924 10925 10929 10933 10934 10936 10940 10946 10949 10952 10958 10959 10963 10967 10967 10969 10971 10975 10976 10977 10977 10977 10978 10978 10978 10978 10977 10975 10974
10887 10887 10887 10887 10888 10889 10890 10891 10892 10893 10894 10897 10899 10899 10901 10903 10906 10907 10910 10912 10914 10918 10921 10922 10927 10933 10939 10941 10950 10954 10957 10960 10962 10963 10967 10970 10971 10974 10975 10975 10975 10976 10976 10976 10977 10974 10973
10879 10879 10879 10879 10880 10880 10880 10881 10882 10883 10884 10887 10888 10889 10891 10893 10894 10896 10899 10898 10900 10901 10904 10908 10912 10919 10927 10931 10941 10946 10951 10953 10954 10955 10961 10964 10967 10969 10971 10973 10973 10973 10973 10973 10973 10972 10971
10873 10873 10872 10873 10873 10873 10874 10874 10875 10876 10876 10878 10880 10881 10882 10884 10885 10888 10887 10887 10887 10889 10891 10893 10898 10904 10912 10919 10926 10938 10942 10946 10947 10950 10952 10959 10962 10963 10968 10970 10971 10971 10971 10971 10971 10970 10969
10866 10866 10866 10866 10866 10866 10866 10867 10868 10869 10870 10872 10873 10874 10875 10876 10877 10878 10878 10879 10880 10880 10878 10879 10882 10888 10896 10904 10911 10924 10930 10936 10939 10944 10942 10952 10955 10958 10964 10968 10969 10968 10969 10969 10969 10969 10968
10861 10859 10859 10858 10858 10859 10859 10859 10861 10862 10863 10864 10865 10866 10867 10868 10869 10870 10871 10872 10871 10868 10866 10865 10869 10876 10880 10888 10897 10910 10919 10924 10934 10936 10936 10946 10948 10954 10960 10963 10963 10963 10965 10967 10967 10967 10969
10854 10853 10852 10851 10851 10852 10852 10852 10853 10854 10855 10855 10857 10858 10859 10860 10861 10862 10864 10864 10863 10861 10858 10856 10859 10864 10866 10874 10882 10898 10906 10917 10921 10926 10932 10935 10942 10951 10956 10955 10957 10960 10962 10964 10964 10964 10966
10848 10846 10845 10844 10844 10844 10844 10844 10845 10845 10846 10847 10848 10848 10849 10851 10852 10854 10855 10856 10857 10855 10853 10851 10853 10855 10857 10867 10877 10885 10895 10905 10908 10919 10926 10927 10937 10945 10947 10947 10953 10956 10958 10961 10962 10961 10963
10841 10840 10839 10838 10838 10837 10837 10837 10837 10837 10838 10838 10839 10839 10840 10842 10843 10845 10847 10848 10849 10849 10847 10847 10848 10849 10850 10857 10864 10872 10879 10890 10897 10907 10915 10916 10927 10933 10939 10941 10948 10952 10955 10958 10961 10960 10962
10835 10833 10832 10832 10831 10831 10831 10830 10830 10830 10830 10831 10830 10831 10832 10833 10835 10836 10838 10839 10840 10841 10842 10842 10844 10845 10848 10853 10857 10862 10867 10874 10882 10892 10902 10910 10921 10926 10930 10934 10942 10947 10952 10955 10958 10959 10961
10832 10830 10829 10827 10825 10825 10825 10824 10823 10823 10823 10823 10823 10823 10824 10826 10828 10829 10830 10832 10831 10832 10834 10836 10839 10840 10842 10846 10849 10854 10858 10861 10868 10877 10887 10899 10908 10914 10920 10929 10936 10942 10948 10952 10956 10957 10959
10831 10829 10827 10825 10823 10822 10821 10819 10817 10817 10817 10817 10816 10817 10817 10818 10819 10821 10823 10823 10822 10823 10825 10830 10832 10835 10837 10839 10840 10843 10846 10850 10856 10863 10874 10888 10897 10905 10913 10924 10930 10937 10942 10947 10952 10954 10957
10828 10826 10823 10822 10821 10819 10817 10816 10814 10814 10813 10813 10811 10811 10811 10811 10812 10813 10815 10815 10814 10816 10819 10822 10825 10828 10830 10832 10833 10835 10837 10844 10849 10855 10863 10875 10885 10897 10908 10914 10922 10931 10938 10942 10946 10950 10954
10822 10821 10819 10817 10815 10814 10812 10811 10809 10809 10809 10808 10806 10806 10805 10804 10804 10805 10807 10809 10809 10811 10812 10813 10815 10819 10823 10825 10825 10828 10830 10833 10838 10842 10852 10859 10871 10886 10891 10902 10916 10925 10932 10936 10941 10945 10948
10815 10813 10812 10809 10807 10806 10803 10803 10802 10801 10801 10801 10800 10799 10799 10798 10798 10799 10800 10803 10803 10803 10804 10806 10807 10808 10813 10816 10817 10820 10821 10824 10829 10833 10839 10848 10863 10872 10884 10900 10912 10918 10923 10928 10934 10940 10942
10805 10804 10802 10800 10798 10797 10794 10793 10792 10791 10790 10791 10791 10790 10790 10789 10789 10790 10792 10794 10795 10794 10795 10797 10798 10799 10800 10805 10808 10810 10813 10816 10819 10825 10829 10836 10850 10864 10875 10879 10888 10899 10909 10919 10927 10934 10940
10794 10793 10791 10789 10787 10785 10783 10781 10780 10780 10779 10779 10779 10780 10778 10779 10778 10779 10781 10782 10786 10787 10787 10787 10790 10791 10792 10793 10797 10799 10804 10807 10811 10815 10821 10828 10839 10856 10863 10870 10881 10891 10903 10911 10918 10928 10934
10781 10780 10778 10777 10775 10772 10770 10768 10766 10765 10765 10765 10765 10766 10766 10766 10765 10766 10768 10769 10771 10774 10775 10778 10779 10781 10782 10784 10785 10787 10792 10798 10802 10808 10813 10819 10830 10842 10851 10860 10872 10881 10893 10903 10911 10918 10926
10768 10766 10764 10762 10759 10757 10754 10752 10751 10749 10748 10747 10747 10749 10749 10750 10750 10751 10753 10753 10755 10758 10761 10763 10767 10769 10771 10773 10774 10776 10779 10785 10793 10799 10804 10810 10819 10828 10841 10850 10860 10876 10887 10892 10899 10909 10917
10754 10751 10748 10745 10743 10739 10736 10734 10732 10729 10728 10727 10727 10728 10730 10731 10731 10733 10735 10736 10737 10740 10744 10746 10750 10754 10757 10758 10761 10764 10768 10771 10781 10788 10795 10801 10807 10817 10827 10838 10860 10873 10877 10881 10887 10897 10908
10739 10735 10731 10727 10723 10719 10716 10713 10712 10709 10706 10704 10704 10704 10706 10708 10710 10712 10714 10716 10718 10720 10724 10729 10730 10734 10739 10743 10746 10749 10754 10759 10765 10773 10784 10791 10798 10807 10816 10834 10852 10860 10869 10875 10882 10890 10900
10719 10714 10709 10704 10699 10694 10691 10687 10686 10685 10682 10679 10678 10678 10681 10683 10686 10689 10692 10696 10698 10699 10703 10708 10708 10712 10718 10723 10727 10734 10738 10745 10748 10756 10766 10775 10783 10794 10808 10822 10840 10846 10850 10858 10868 10881 10890
10695 10689 10682 10675 10668 10663 10659 10654 10652 10652 10651 10647 10646 10649 10651 10655 10657 10662 10667 10671 10674 10675 10680 10683 10687 10690 10695 10700 10705 10713 10719 10725 10732 10741 10745 10756 10767 10785 10790 10806 10821 10828 10840 10850 10872 10867 10875
10668 10659 10651 10642 10633 10625 10618 10611 10608 10608 10611 10610 10609 10612 10617 10620 10624 10631 10638 10643 10647 10649 10653 10657 10659 10664 10667 10672 10679 10687 10696 10704 10712 10721 10729 10736 10751 10766 10775 10792 10804 10808 10824 10835 10845 10844 10859
10641 10629 10616 10603 10589 10577 10567 10559 10555 10554 10556 10563 10567 10570 10576 10583 10590 10599 10605 10611 10617 10621 10624 10629 10633 10633 10636 10641 10650 10660 10671 10681 10691 10697 10704 10715 10731 10750 10767 10784 10785 10793 10812 10834 10841 10839 10860